Location: Batang Balui
(2.7000°N, 113.7833°E)
Time: 07:59:15
(UTC+00:00)

ISS - Visible Passes

Search period start: 09 December 2023 00:00
Search period end: 19 December 2023 00:00
Orbit: 415 x 417 km, 51.6° (Epoch: 09 December)

Date Brightness Start Highest point End Pass type
(mag) Time Alt. Az. Time Alt. Az. Time Alt. Az.
09 Dec -3.1 11:14:30 10° NW 11:17:47 56° SW 11:21:04 10° SSE visible
11 Dec -0.1 11:15:39 10° WSW 11:16:56 12° SW 11:18:14 10° SSW visible
13 Dec -2.2 21:13:05 10° SSW 21:16:13 38° SE 21:19:20 10° NE visible
14 Dec -0.7 20:25:08 10° SSE 20:27:20 16° SE 20:29:32 10° E visible
15 Dec -3.0 21:15:26 32° NNW 21:15:26 32° NNW 21:17:58 10° NNE visible
